When you browse on this site, cookies collect data to enhance your experience and personalize the content and advertising you see.
Visit our Privacy Policy to learn more. By continuing to use the site, you agree to this use of cookies and data.
  • în România
  • Lista ţărilor
  • Pe 7 zile
  • Temperatura apei
  • Meteo pe hartă
  • Widget-uri
  • user-avatar
    Intrare

    Meteo pe oră la Adelaide

    Astăzi, 18 Februarie, Marţi

    Timp Temperatura Precipitaţii Vânt Presiune Umiditate
    00:00 +22°C° 0 mm 4 m/s 753 mmHg 57%
    01:00 +21°C° 0 mm 5 m/s 753 mmHg 64%
    02:00 +20°C° 0 mm 5 m/s 753 mmHg 70%
    03:00 +19°C° 0 mm 6 m/s 753 mmHg 77%
    04:00 +19°C° 0 mm 6 m/s 754 mmHg 78%
    05:00 +17°C° 0 mm 6 m/s 754 mmHg 80%
    06:00 +17°C° 0 mm 6 m/s 755 mmHg 81%
    07:00 +18°C° 0.1 mm 7 m/s 755 mmHg 77%
    08:00 +20°C° 0.1 mm 7 m/s 755 mmHg 72%
    09:00 +21°C° 0.1 mm 8 m/s 756 mmHg 67%
    10:00 +21°C° 0 mm 8 m/s 756 mmHg 65%
    11:00 +22°C° 0 mm 9 m/s 756 mmHg 62%
    12:00 +22°C° 0 mm 9 m/s 756 mmHg 60%
    13:00 +22°C° 0 mm 9 m/s 756 mmHg 60%
    14:00 +22°C° 0 mm 9 m/s 756 mmHg 61%
    15:00 +21°C° 0 mm 9 m/s 756 mmHg 62%
    16:00 +21°C° 0 mm 8 m/s 756 mmHg 63%
    17:00 +20°C° 0 mm 8 m/s 757 mmHg 65%
    18:00 +18°C° 0 mm 8 m/s 757 mmHg 66%
    19:00 +17°C° 0 mm 7 m/s 758 mmHg 68%
    20:00 +17°C° 0 mm 7 m/s 758 mmHg 69%
    21:00 +16°C° 0 mm 6 m/s 758 mmHg 71%
    22:00 +16°C° 0 mm 6 m/s 758 mmHg 71%
    23:00 +16°C° 0 mm 5 m/s 758 mmHg 71%

    Mâine, 19 Februarie, Miercuri

    Timp Temperatura Precipitaţii Vânt Presiune Umiditate
    00:00 +16°C° 0 mm 5 m/s 758 mmHg 72%
    01:00 +16°C° 0 mm 5 m/s 758 mmHg 73%
    02:00 +15°C° 0 mm 5 m/s 758 mmHg 74%
    03:00 +15°C° 0 mm 5 m/s 758 mmHg 75%
    04:00 +15°C° 0 mm 4 m/s 758 mmHg 76%
    05:00 +14°C° 0 mm 4 m/s 759 mmHg 77%
    06:00 +14°C° 0 mm 4 m/s 759 mmHg 77%
    07:00 +15°C° 0 mm 4 m/s 759 mmHg 71%
    08:00 +18°C° 0 mm 4 m/s 759 mmHg 66%
    09:00 +19°C° 0 mm 4 m/s 759 mmHg 60%
    10:00 +19°C° 0 mm 4 m/s 759 mmHg 58%
    11:00 +20°C° 0 mm 5 m/s 759 mmHg 57%
    12:00 +21°C° 0 mm 5 m/s 759 mmHg 55%
    13:00 +21°C° 0 mm 5 m/s 759 mmHg 54%
    14:00 +21°C° 0 mm 6 m/s 758 mmHg 53%
    15:00 +22°C° 0 mm 6 m/s 758 mmHg 51%
    16:00 +20°C° 0 mm 6 m/s 758 mmHg 54%
    17:00 +19°C° 0 mm 6 m/s 758 mmHg 57%
    18:00 +17°C° 0 mm 6 m/s 759 mmHg 60%
    19:00 +16°C° 0 mm 5 m/s 759 mmHg 66%
    20:00 +15°C° 0 mm 5 m/s 759 mmHg 71%
    21:00 +14°C° 0 mm 5 m/s 759 mmHg 77%
    22:00 +14°C° 0 mm 4 m/s 759 mmHg 79%
    23:00 +14°C° 0 mm 4 m/s 759 mmHg 81%

    Poimâine, 20 Februarie, Joi

    Timp Temperatura Precipitaţii Vânt Presiune Umiditate
    00:00 +14°C° 0 mm 4 m/s 759 mmHg 82%
    01:00 +13°C° 0 mm 4 m/s 759 mmHg 82%
    02:00 +13°C° 0 mm 3 m/s 758 mmHg 82%
    03:00 +13°C° 0 mm 3 m/s 758 mmHg 82%
    04:00 +13°C° 0 mm 3 m/s 759 mmHg 81%
    05:00 +14°C° 0 mm 2 m/s 759 mmHg 80%
    06:00 +14°C° 0 mm 2 m/s 759 mmHg 79%
    07:00 +16°C° 0 mm 2 m/s 760 mmHg 72%
    08:00 +17°C° 0 mm 2 m/s 760 mmHg 65%
    09:00 +18°C° 0 mm 2 m/s 760 mmHg 58%
    10:00 +19°C° 0 mm 2 m/s 760 mmHg 55%
    11:00 +20°C° 0 mm 3 m/s 760 mmHg 52%
    12:00 +21°C° 0 mm 3 m/s 759 mmHg 49%
    13:00 +21°C° 0 mm 4 m/s 759 mmHg 50%
    14:00 +21°C° 0 mm 5 m/s 759 mmHg 52%
    15:00 +21°C° 0 mm 6 m/s 758 mmHg 53%
    16:00 +20°C° 0 mm 6 m/s 759 mmHg 57%
    17:00 +19°C° 0 mm 6 m/s 759 mmHg 61%
    18:00 +19°C° 0 mm 6 m/s 759 mmHg 65%
    19:00 +17°C° 0 mm 5 m/s 760 mmHg 68%
    20:00 +16°C° 0 mm 5 m/s 760 mmHg 72%
    21:00 +15°C° 0 mm 5 m/s 761 mmHg 75%
    22:00 +15°C° 0 mm 4 m/s 761 mmHg 75%
    23:00 +15°C° 0 mm 4 m/s 760 mmHg 76%

    21 Februarie, Vineri

    Timp Temperatura Precipitaţii Vânt Presiune Umiditate
    00:00 +14°C° 0 mm 4 m/s 760 mmHg 76%
    01:00 +14°C° 0 mm 3 m/s 760 mmHg 76%
    02:00 +14°C° 0 mm 3 m/s 760 mmHg 76%
    03:00 +14°C° 0 mm 3 m/s 760 mmHg 75%
    04:00 +14°C° 0 mm 3 m/s 760 mmHg 76%
    05:00 +14°C° 0 mm 3 m/s 761 mmHg 76%
    06:00 +14°C° 0 mm 3 m/s 761 mmHg 76%
    07:00 +17°C° 0 mm 3 m/s 761 mmHg 71%
    08:00 +18°C° 0 mm 3 m/s 762 mmHg 65%
    09:00 +20°C° 0 mm 3 m/s 762 mmHg 60%
    10:00 +20°C° 0 mm 3 m/s 762 mmHg 58%
    11:00 +21°C° 0 mm 3 m/s 761 mmHg 55%
    12:00 +21°C° 0 mm 3 m/s 761 mmHg 53%
    13:00 +22°C° 0 mm 4 m/s 761 mmHg 51%
    14:00 +22°C° 0 mm 5 m/s 760 mmHg 50%
    15:00 +23°C° 0 mm 5 m/s 760 mmHg 48%
    22:00 +15°C° 0 mm 5 m/s 762 mmHg 78%
    23:00 +15°C° 0 mm 5 m/s 762 mmHg 80%

    22 Februarie, Sâmbătă

    Timp Temperatura Precipitaţii Vânt Presiune Umiditate
    00:00 +14°C° 0 mm 4 m/s 762 mmHg 80%
    01:00 +14°C° 0 mm 4 m/s 762 mmHg 80%
    02:00 +14°C° 0 mm 4 m/s 762 mmHg 81%
    03:00 +13°C° 0 mm 3 m/s 762 mmHg 81%
    04:00 +13°C° 0 mm 3 m/s 762 mmHg 79%
    05:00 +13°C° 0 mm 3 m/s 762 mmHg 78%
    06:00 +13°C° 0 mm 3 m/s 762 mmHg 76%
    07:00 +16°C° 0 mm 3 m/s 763 mmHg 66%
    08:00 +18°C° 0 mm 2 m/s 763 mmHg 57%
    09:00 +20°C° 0 mm 2 m/s 763 mmHg 47%
    10:00 +23°C° 0 mm 2 m/s 763 mmHg 43%
    11:00 +24°C° 0 mm 2 m/s 762 mmHg 40%
    12:00 +26°C° 0 mm 2 m/s 762 mmHg 36%
    13:00 +26°C° 0 mm 3 m/s 762 mmHg 37%
    14:00 +26°C° 0 mm 4 m/s 761 mmHg 39%
    15:00 +25°C° 0 mm 4 m/s 761 mmHg 40%
    16:00 +23°C° 0 mm 4 m/s 761 mmHg 43%
    17:00 +22°C° 0 mm 5 m/s 760 mmHg 46%
    18:00 +21°C° 0 mm 5 m/s 760 mmHg 50%
    19:00 +20°C° 0 mm 5 m/s 761 mmHg 55%
    20:00 +18°C° 0 mm 4 m/s 761 mmHg 61%
    21:00 +17°C° 0 mm 4 m/s 762 mmHg 67%
    22:00 +17°C° 0 mm 4 m/s 762 mmHg 69%
    23:00 +16°C° 0 mm 3 m/s 761 mmHg 71%

    23 Februarie, Duminică

    Timp Temperatura Precipitaţii Vânt Presiune Umiditate
    00:00 +16°C° 0 mm 3 m/s 761 mmHg 74%
    01:00 +16°C° 0 mm 3 m/s 761 mmHg 73%
    02:00 +16°C° 0 mm 2 m/s 761 mmHg 73%
    03:00 +15°C° 0 mm 2 m/s 761 mmHg 72%
    04:00 +16°C° 0 mm 2 m/s 761 mmHg 70%
    05:00 +16°C° 0 mm 2 m/s 761 mmHg 67%
    06:00 +16°C° 0 mm 2 m/s 761 mmHg 65%
    07:00 +20°C° 0 mm 1 m/s 761 mmHg 55%
    08:00 +23°C° 0 mm 1 m/s 761 mmHg 44%
    09:00 +26°C° 0 mm 1 m/s 761 mmHg 34%
    10:00 +27°C° 0 mm 2 m/s 761 mmHg 32%
    11:00 +29°C° 0 mm 2 m/s 761 mmHg 29%
    12:00 +30°C° 0 mm 2 m/s 760 mmHg 27%
    13:00 +30°C° 0 mm 2 m/s 760 mmHg 27%
    14:00 +30°C° 0 mm 3 m/s 759 mmHg 27%
    15:00 +30°C° 0 mm 3 m/s 759 mmHg 27%
    16:00 +30°C° 0 mm 3 m/s 759 mmHg 29%
    17:00 +29°C° 0 mm 2 m/s 758 mmHg 31%
    18:00 +28°C° 0 mm 2 m/s 758 mmHg 33%
    19:00 +27°C° 0 mm 2 m/s 759 mmHg 36%
    20:00 +26°C° 0 mm 3 m/s 759 mmHg 39%
    21:00 +25°C° 0 mm 3 m/s 760 mmHg 42%
    22:00 +24°C° 0 mm 2 m/s 759 mmHg 42%
    23:00 +24°C° 0 mm 2 m/s 759 mmHg 43%
    Arată mai mult